Weather History for Paynesville, MN

Change the Weather History Date:

Thursday, February 21, 2013

  Actual Average (KLJF) Record (KLJF)
Temperature  
Mean Temperature 8 °F -  
Max Temperature 19 °F 32 °F 55 °F (1961)
Min Temperature -3 °F 13 °F -20 °F (1963)
Degree Days  
Heating Degree Days 57    
Moisture  
Dew Point 3 °F    
Average Humidity 72    
Maximum Humidity 85    
Minimum Humidity 58    
Precipitation  
Precipitation 0.00 in - - ()
Sea Level Pressure  
Sea Level Pressure 30.27 in    
Wind  
Wind Speed 4 mph (NE)    
Max Wind Speed 12 mph    
Max Gust Speed 16 mph    
Visibility 10 miles    
Events      
Averages and records for this station are not official NWS values.
T = Trace of Precipitation, MM = Missing Value Source: NWS Daily Summary

Daily Weather History Graph

Daily Weather History Graph

Search for Another Location

Airport:

Trip Planner

Search our weather history database for the weather conditions in past years. The results will help you decide how hot, cold, wet, or windy it might be!

Date:

Astronomy

Feb. 21, 2013 Rise Set
Actual Time 7:10 AM CST 5:55 PM CST
Civil Twilight 6:40 AM CST 6:25 PM CST
Nautical Twilight 6:06 AM CST 6:59 PM CST
Astronomical Twilight 5:31 AM CST 7:33 PM CST
Moon 2:03 PM CST (2/21) 4:23 AM CST (2/21)
Length of Visible Light 11h 44m
Length of Day
10h 44m
Waxing Gibbous, 84% of the Moon is Illuminated
Feb 21
Waxing Gibbous
Feb 25
Full
Mar 4
Last Quarter
Mar 11
New
Mar 19
First Quarter

Hourly Weather History & Observations

Time (CST) Temp. Windchill Dew Point Humidity Pressure Visibility Wind Dir Wind Speed Gust Speed Precip Events Conditions
12:13 AM -0.8 °F - -5.8 °F 79% 30.36 in 10.0 mi Calm Calm - N/A   Clear
12:33 AM 0.3 °F - -5.3 °F 77% 30.36 in 10.0 mi Calm Calm - N/A   Clear
12:54 AM -0.4 °F - -5.8 °F 78% 30.37 in 10.0 mi Calm Calm - N/A   Clear
1:13 AM -1.3 °F - -6.2 °F 80% 30.37 in 10.0 mi Calm Calm - N/A   Clear
1:33 AM -1.1 °F - -5.4 °F 82% 30.37 in 10.0 mi Calm Calm - N/A   Clear
1:53 AM -1.3 °F - -5.8 °F 81% 30.37 in 10.0 mi Calm Calm - N/A   Clear
2:13 AM -1.5 °F - -6.2 °F 80% 30.38 in 10.0 mi Calm Calm - N/A   Clear
2:33 AM -0.8 °F - -5.8 °F 79% 30.38 in 10.0 mi Calm Calm - N/A   Clear
2:53 AM -1.7 °F - -6.2 °F 81% 30.38 in 10.0 mi Calm Calm - N/A   Clear
3:13 AM -0.2 °F - -5.3 °F 79% 30.38 in 10.0 mi Calm Calm - N/A   Clear
3:33 AM -1.8 °F - -7.1 °F 78% 30.38 in 10.0 mi Calm Calm - N/A   Clear
3:53 AM -0.2 °F - -5.6 °F 78% 30.38 in 10.0 mi Calm Calm - N/A   Clear
4:13 AM -3.6 °F - -8.0 °F 82% 30.37 in 10.0 mi Calm Calm - N/A   Clear
4:33 AM -1.7 °F -9.7 °F -6.0 °F 82% 30.36 in 10.0 mi NE 3.5 mph - N/A   Clear
4:53 AM -3.5 °F -11.8 °F -8.1 °F 80% 30.35 in 10.0 mi NE 3.5 mph - N/A   Clear
5:13 AM -2.2 °F - -6.2 °F 83% 30.35 in 10.0 mi Calm Calm - N/A   Clear
5:53 AM -2.6 °F -18.4 °F -6.2 °F 85% 30.29 in 10.0 mi NE 9.2 mph - N/A   Clear
6:13 AM 2.8 °F -6.6 °F -2.7 °F 78% 30.28 in 10.0 mi NE 4.6 mph - N/A   Clear
6:33 AM -0.9 °F -8.9 °F -5.1 °F 83% 30.32 in 10.0 mi ENE 3.5 mph - N/A   Clear
6:53 AM 3.7 °F -11.6 °F -1.1 °F 80% 30.40 in 10.0 mi SE 10.4 mph - N/A   Clear
7:13 AM 2.7 °F -6.8 °F -2.6 °F 79% 30.38 in 10.0 mi East 4.6 mph - N/A   Clear
7:33 AM 2.3 °F - -2.6 °F 80% 30.40 in 10.0 mi Calm Calm - N/A   Clear
7:53 AM 1.4 °F -6.2 °F -2.9 °F 82% 30.38 in 10.0 mi ENE 3.5 mph - N/A   Clear
8:13 AM 3.0 °F -8.0 °F -1.7 °F 81% 30.37 in 10.0 mi ENE 5.8 mph - N/A   Clear
8:33 AM 4.1 °F -5.1 °F -1.3 °F 78% 30.36 in 10.0 mi ENE 4.6 mph - N/A   Clear
8:53 AM 4.3 °F - -1.5 °F 77% 30.35 in 10.0 mi Calm Calm - N/A   Clear
9:13 AM 6.6 °F -5.0 °F 0.5 °F 76% 30.35 in 10.0 mi ENE 6.9 mph - N/A   Clear
9:33 AM 8.6 °F -3.7 °F 1.4 °F 73% 30.33 in 10.0 mi ENE 8.1 mph - N/A   Clear
9:54 AM 9.9 °F -2.2 °F 1.9 °F 70% 30.34 in 10.0 mi ENE 8.1 mph - N/A   Clear
10:13 AM 10.8 °F -2.0 °F 2.1 °F 68% 30.34 in 10.0 mi East 9.2 mph - N/A   Clear
10:33 AM 11.1 °F -2.4 °F 2.3 °F 68% 30.35 in 10.0 mi East 10.4 mph - N/A   Clear
10:53 AM 11.3 °F -1.3 °F 2.5 °F 68% 30.35 in 10.0 mi East 9.2 mph - N/A   Clear
11:13 AM 12.0 °F -0.4 °F 3.0 °F 67% 30.35 in 10.0 mi East 9.2 mph - N/A   Clear
11:33 AM 13.1 °F 2.8 °F 3.7 °F 66% 30.34 in 10.0 mi ENE 6.9 mph - N/A   Clear
11:53 AM 13.3 °F 4.2 °F 3.7 °F 66% 30.33 in 10.0 mi ENE 5.8 mph - N/A   Clear
12:13 PM 14.9 °F 4.0 °F 4.6 °F 64% 30.33 in 10.0 mi East 8.1 mph - N/A   Clear
12:33 PM 15.8 °F 5.1 °F 5.4 °F 63% 30.31 in 10.0 mi East 8.1 mph - N/A   Clear
12:53 PM 16.3 °F 6.7 °F 5.0 °F 61% 30.29 in 10.0 mi ENE 6.9 mph - N/A   Clear
1:13 PM 16.7 °F 6.2 °F 5.9 °F 63% 30.29 in 10.0 mi NE 8.1 mph - N/A   Clear
1:33 PM 18.0 °F 8.7 °F 6.4 °F 61% 30.28 in 10.0 mi NE 6.9 mph - N/A   Clear
1:53 PM 18.5 °F 7.5 °F 5.9 °F 58% 30.26 in 10.0 mi ENE 9.2 mph - N/A   Clear
2:13 PM 18.5 °F 8.4 °F 6.8 °F 60% 30.26 in 10.0 mi NE 8.1 mph - N/A   Clear
2:33 PM 18.9 °F 7.2 °F 6.3 °F 58% 30.25 in 10.0 mi ENE 10.4 mph - N/A   Clear
2:53 PM 18.5 °F 7.5 °F 6.6 °F 60% 30.24 in 10.0 mi NE 9.2 mph - N/A   Clear
3:13 PM 18.5 °F 6.8 °F 6.8 °F 60% 30.23 in 10.0 mi NE 10.4 mph - N/A   Clear
3:33 PM 18.5 °F 6.1 °F 7.0 °F 61% 30.22 in 10.0 mi ENE 11.5 mph - N/A   Clear
3:53 PM 18.3 °F 6.6 °F 7.2 °F 62% 30.21 in 10.0 mi NNE 10.4 mph - N/A   Clear
4:13 PM 17.8 °F 9.6 °F 7.5 °F 64% 30.21 in 10.0 mi NE 5.8 mph - N/A   Clear
4:33 PM 17.6 °F 5.0 °F 6.8 °F 63% 30.21 in 10.0 mi NE 11.5 mph 16.1 mph N/A   Clear
4:53 PM 17.8 °F 6.6 °F 7.3 °F 64% 30.21 in 10.0 mi NE 9.2 mph - N/A   Clear
5:13 PM 17.6 °F 6.4 °F 6.4 °F 62% 30.21 in 10.0 mi NE 9.2 mph - N/A   Clear
5:33 PM 17.4 °F 6.2 °F 6.4 °F 62% 30.20 in 10.0 mi NE 9.2 mph - N/A   Clear
5:53 PM 17.2 °F 6.0 °F 6.6 °F 63% 30.20 in 10.0 mi NE 9.2 mph - N/A   Clear
6:13 PM 16.9 °F 6.4 °F 6.6 °F 64% 30.19 in 10.0 mi NE 8.1 mph - N/A   Clear
6:33 PM 17.1 °F 8.7 °F 6.8 °F 64% 30.19 in 10.0 mi NE 5.8 mph - N/A   Clear
6:53 PM 16.7 °F 8.3 °F 7.2 °F 66% 30.19 in 10.0 mi NE 5.8 mph - N/A   Clear
7:13 PM 17.1 °F 10.0 °F 7.5 °F 66% 30.18 in 10.0 mi NE 4.6 mph - N/A   Clear
7:33 PM 17.1 °F 8.7 °F 7.7 °F 67% 30.17 in 10.0 mi NE 5.8 mph - N/A   Clear
7:53 PM 17.2 °F 8.9 °F 8.2 °F 68% 30.16 in 10.0 mi NE 5.8 mph - N/A   Clear
8:13 PM 17.4 °F 9.1 °F 8.6 °F 68% 30.16 in 10.0 mi NE 5.8 mph - N/A   Scattered Clouds
8:33 PM 17.6 °F 10.7 °F 9.0 °F 69% 30.16 in 10.0 mi NE 4.6 mph - N/A   Scattered Clouds
8:53 PM 17.6 °F 10.7 °F 9.1 °F 69% 30.15 in 10.0 mi NNE 4.6 mph - N/A   Clear
9:13 PM 16.7 °F 8.3 °F 9.3 °F 73% 30.15 in 10.0 mi NNE 5.8 mph - N/A   Mostly Cloudy
9:33 PM 17.1 °F 8.7 °F 8.8 °F 70% 30.14 in 10.0 mi NNE 5.8 mph - N/A   Overcast
9:53 PM 17.4 °F 8.0 °F 8.6 °F 68% 30.13 in 10.0 mi NNE 6.9 mph - N/A   Overcast
10:13 PM 17.8 °F 8.5 °F 10.0 °F 72% 30.11 in 10.0 mi NNE 6.9 mph - N/A   Overcast
10:33 PM 18.3 °F 8.2 °F 11.5 °F 75% 30.11 in 10.0 mi NE 8.1 mph - N/A   Overcast
10:53 PM 18.7 °F 7.8 °F 12.9 °F 78% 30.09 in 10.0 mi NE 9.2 mph - N/A   Mostly Cloudy
11:13 PM 19.4 °F 7.9 °F 14.0 °F 80% 30.09 in 10.0 mi NE 10.4 mph 16.1 mph N/A   Overcast
11:33 PM 19.4 °F 7.2 °F 14.4 °F 81% 30.08 in 10.0 mi NE 11.5 mph - N/A   Overcast
11:53 PM 19.4 °F 7.2 °F 14.7 °F 82% 30.07 in 10.0 mi NE 11.5 mph 16.1 mph N/A   Overcast